Columbia / Mount Pleasant, TN

3:17 PM CST on December 14, 2019 (GMT -0600)
Maury County

Weather History for KMRC - November, 2019

Change the Weather History Date:

Friday, November 22, 2019

  Actual Average (KBNA) Record (KBNA)
Temperature  
Mean Temperature 54 °F -  
Max Temperature 59 °F 56 °F 77 °F (1900)
Min Temperature 48 °F 36 °F 15 °F (1964)
Degree Days  
Heating Degree Days 12    
Growing Degree Days 4 (Base 50)    
Moisture  
Dew Point 51 °F    
Average Humidity 96    
Maximum Humidity 100    
Minimum Humidity 55    
Precipitation  
Precipitation 0.29 in - - ()
Sea Level Pressure  
Sea Level Pressure 29.99 in    
Wind  
Wind Speed 9 mph (ENE)    
Max Wind Speed 16 mph    
Max Gust Speed 25 mph    
Visibility 6 miles    
Events      
Averages and records for this station are not official NWS values.
T = Trace of Precipitation, MM = Missing Value Source: NWS Daily Summary

Daily Weather History Graph

Daily Weather History Graph

Search for Another Location

Airport or City:

Astronomy

Nov. 22, 2019 Rise Set
Actual Time 6:30 AM CST 4:38 PM CST
Civil Twilight 6:03 AM CST 5:05 PM CST
Nautical Twilight 5:32 AM CST 5:36 PM CST
Astronomical Twilight 5:01 AM CST 6:07 PM CST
Moon 1:49 AM CST (11/22) 2:27 PM CST (11/22)
Length of Visible Light 11h 02m
Length of Day
10h 07m
Waning Crescent, 19% of the Moon is Illuminated
Nov 22
Waning Crescent
Nov 26
New
Dec 4
First Quarter
Dec 11
Full
Dec 18
Last Quarter

Hourly Weather History & Observations

Time (CST) Temp. Dew Point Humidity Pressure Visibility Wind Dir Wind Speed Gust Speed Precip Events Conditions
12:15 AM 59.0 °F 42.8 °F 55% 30.00 in 10.0 mi SSW 16.1 mph 25.3 mph N/A   Overcast
12:55 AM 57.2 °F 44.6 °F 63% 30.00 in 10.0 mi SW 12.7 mph - N/A   Scattered Clouds
1:15 AM 57.2 °F 46.4 °F 67% 30.00 in 10.0 mi SSW 13.8 mph 19.6 mph N/A   Mostly Cloudy
1:35 AM 57.2 °F 46.4 °F 67% 30.00 in 10.0 mi SSW 9.2 mph 16.1 mph N/A   Overcast
1:55 AM 57.2 °F 46.4 °F 67% 29.99 in 10.0 mi SSW 9.2 mph 15.0 mph N/A   Overcast
2:15 AM 57.2 °F 48.2 °F 72% 29.99 in 10.0 mi SSW 10.4 mph - N/A   Overcast
2:35 AM 57.2 °F 50.0 °F 77% 29.98 in 10.0 mi SSW 11.5 mph 20.7 mph N/A   Overcast
2:55 AM 57.2 °F 50.0 °F 77% 29.98 in 10.0 mi SSW 10.4 mph 18.4 mph N/A   Overcast
3:35 AM 55.4 °F 53.6 °F 94% 30.01 in 5.0 mi SW 9.2 mph - N/A   Overcast
3:55 AM 53.6 °F 53.6 °F 100% 30.01 in 2.5 mi SSW 9.2 mph - 0.10 in   Overcast
4:15 AM 53.6 °F 53.6 °F 100% 30.00 in 10.0 mi South 9.2 mph - N/A   Overcast
4:35 AM 53.6 °F 53.6 °F 100% 29.99 in 9.0 mi SSW 10.4 mph - N/A   Overcast
4:55 AM 53.6 °F 53.6 °F 100% 29.98 in 10.0 mi SSW 10.4 mph - 0.01 in   Overcast
5:15 AM 53.6 °F 53.6 °F 100% 29.98 in 10.0 mi South 10.4 mph - N/A   Mostly Cloudy
5:35 AM 55.4 °F 55.4 °F 100% 29.98 in 10.0 mi SW 11.5 mph 17.3 mph N/A   Mostly Cloudy
5:55 AM 55.4 °F 55.4 °F 100% 29.98 in 9.0 mi SSW 12.7 mph - N/A   Mostly Cloudy
6:35 AM 55.4 °F 55.4 °F 100% 29.98 in 8.0 mi SSW 12.7 mph - N/A   Overcast
6:55 AM 55.4 °F 55.4 °F 100% 30.02 in 9.0 mi NNW 6.9 mph - N/A   Overcast
7:15 AM 55.4 °F 55.4 °F 100% 30.02 in 1.0 mi Calm Calm - N/A   Overcast
7:35 AM 55.4 °F 55.4 °F 100% 30.02 in 2.5 mi Calm Calm - N/A   Mostly Cloudy
8:15 AM 55.4 °F 55.4 °F 100% 30.02 in 0.8 mi SE 3.5 mph - N/A   Overcast
8:35 AM 55.4 °F 55.4 °F 100% 30.03 in 1.2 mi Calm Calm - N/A   Overcast
8:55 AM 55.4 °F 55.4 °F 100% 30.04 in 1.2 mi Calm Calm - 0.16 in   Overcast
9:15 AM 55.4 °F 55.4 °F 100% 30.03 in 1.5 mi ENE 4.6 mph - N/A   Mostly Cloudy
9:55 AM 57.2 °F 57.2 °F 100% 30.02 in 5.0 mi ESE 4.6 mph - 0.01 in   Overcast
10:15 AM 57.2 °F 57.2 °F 100% 30.00 in 10.0 mi SE 8.1 mph - N/A   Overcast
10:35 AM 59.0 °F 59.0 °F 100% 29.98 in 10.0 mi Variable 4.6 mph 11.5 mph N/A   Overcast
10:55 AM 59.0 °F 59.0 °F 100% 30.00 in 10.0 mi Calm Calm - N/A   Overcast
11:15 AM 59.0 °F 59.0 °F 100% 30.00 in 10.0 mi Variable 6.9 mph - N/A   Overcast
11:35 AM 57.2 °F 57.2 °F 100% 30.00 in 10.0 mi North 4.6 mph - N/A   Overcast
11:55 AM 50.0 °F 50.0 °F 100% 30.02 in 7.0 mi NNW 12.7 mph 21.9 mph N/A   Overcast
12:15 PM 48.2 °F 48.2 °F 100% 30.01 in 5.0 mi North 5.8 mph 12.7 mph N/A   Overcast
12:35 PM 48.2 °F 48.2 °F 100% 30.02 in 8.0 mi North 5.8 mph - N/A   Overcast
12:55 PM 50.0 °F 50.0 °F 100% 30.01 in 3.0 mi North 5.8 mph - N/A   Overcast
1:15 PM 50.0 °F 50.0 °F 100% 30.01 in 1.5 mi Variable 4.6 mph - N/A   Overcast
1:35 PM 50.0 °F 50.0 °F 100% 30.01 in 1.0 mi NNE 4.6 mph - N/A   Overcast
1:55 PM 50.0 °F 50.0 °F 100% 30.02 in 1.0 mi Calm Calm - N/A   Overcast
2:15 PM 50.0 °F 50.0 °F 100% 30.02 in 1.0 mi ENE 4.6 mph - N/A   Overcast
2:35 PM 50.0 °F 50.0 °F 100% 30.03 in 1.0 mi North 4.6 mph - N/A   Overcast
2:55 PM 50.0 °F 50.0 °F 100% 30.01 in 1.0 mi NNE 5.8 mph - N/A   Overcast
3:15 PM 50.0 °F 50.0 °F 100% 30.01 in 1.8 mi NE 6.9 mph - N/A   Overcast
3:35 PM 48.2 °F 48.2 °F 100% 29.99 in 3.0 mi East 6.9 mph - N/A   Overcast
3:55 PM 48.2 °F 48.2 °F 100% 29.99 in 4.0 mi ESE 4.6 mph - N/A   Overcast
4:15 PM 48.2 °F 48.2 °F 100% 29.99 in 9.0 mi East 3.5 mph - N/A   Overcast
4:35 PM 50.0 °F 50.0 °F 100% 30.00 in 10.0 mi NNE 5.8 mph - N/A   Overcast
4:55 PM 50.0 °F 50.0 °F 100% 29.99 in 10.0 mi East 5.8 mph - N/A   Overcast
5:15 PM 50.0 °F 50.0 °F 100% 29.99 in 10.0 mi East 6.9 mph - N/A   Overcast
5:35 PM 50.0 °F 50.0 °F 100% 29.99 in 10.0 mi Calm Calm - N/A   Overcast
5:55 PM 50.0 °F 50.0 °F 100% 29.99 in 8.0 mi NNE 3.5 mph - 0.01 in   Overcast
6:15 PM 50.0 °F 50.0 °F 100% 29.99 in 9.0 mi NE 4.6 mph - N/A   Overcast
6:55 PM 50.0 °F 50.0 °F 100% 30.00 in 10.0 mi North 4.6 mph - N/A   Overcast
7:35 PM 50.0 °F 50.0 °F 100% 30.00 in 10.0 mi Calm Calm - N/A   Overcast
7:55 PM 50.0 °F 50.0 °F 100% 29.99 in 8.0 mi NE 4.6 mph - N/A   Overcast
8:15 PM 50.0 °F 50.0 °F 100% 29.97 in 6.0 mi East 9.2 mph - N/A   Overcast
8:35 PM 50.0 °F 50.0 °F 100% 29.95 in 3.0 mi East 9.2 mph - N/A   Overcast
8:55 PM 48.2 °F 48.2 °F 100% 29.95 in 3.0 mi NE 8.1 mph - N/A   Overcast
9:15 PM 48.2 °F 48.2 °F 100% 29.96 in 3.0 mi North 5.8 mph - N/A   Overcast
9:35 PM 48.2 °F 48.2 °F 100% 29.96 in 4.0 mi NNE 6.9 mph - N/A   Overcast
10:15 PM 48.2 °F 48.2 °F 100% 29.95 in 1.0 mi NNE 5.8 mph - N/A   Overcast
10:35 PM 48.2 °F 48.2 °F 100% 29.94 in 1.8 mi ENE 8.1 mph - N/A   Overcast
10:55 PM 48.2 °F 48.2 °F 100% 29.93 in 1.8 mi NE 6.9 mph - N/A   Overcast
11:15 PM 48.2 °F 48.2 °F 100% 29.94 in 2.0 mi North 5.8 mph - N/A   Overcast
11:55 PM 48.2 °F 48.2 °F 100% 29.92 in 1.8 mi ENE 3.5 mph - N/A   Overcast